Regional Weather Roundup
Issued by NWS

Home | Current Version | Previous Version | Text Only | Print | Product List | Glossary On
Versions: 1 2 3 4 5 6 7 8 9 10 11 12 13 14 15 16 17 18 19 20 21 22 23 24 25 26 27
000
ASUS44 KBMX 250510
RWRAL

ALABAMA REGIONAL WEATHER ROUNDUP
NATIONAL WEATHER SERVICE BIRMINGHAM AL
1200 AM CDT SAT MAR 25 2017

NOTE: "FAIR" INDICATES FEW OR NO CLOUDS BELOW 12,000 FEET
WITH NO SIGNIFICANT WEATHER AND/OR OBSTRUCTIONS TO VISIBILITY.

THE REMARK "TC" DENOTES TEMPERATURE IN DEGREES CELSIUS.

ALZ001>011-014-016>018-020-250600-
NORTH ALABAMA

CITY           SKY/WX    TMP DP  RH WIND       PRES   REMARKS
MUSCLE SHOALS  MOCLDY    66  53  63 S7        30.14F
HUNTSVILLE     CLOUDY    66  52  60 SE9       30.16S
DECATUR        PTCLDY    63  53  70 SE9       30.16S
HALEYVILLE     FAIR      64  56  75 S7        30.17F
GADSDEN        CLOUDY    68  52  56 SE8       30.20F
$$

ALZ012-013-022-023-030>036-040>044-250600-
WEST CENTRAL ALABAMA

CITY           SKY/WX    TMP DP  RH WIND       PRES   REMARKS
TUSCALOOSA     CLOUDY    67  56  67 S12       30.17F
$$

ALZ015-024>027-033>036-040>044-250600-
CENTRAL ALABAMA

CITY           SKY/WX    TMP DP  RH WIND       PRES   REMARKS
BIRMINGHAM     CLEAR     69  52  54 S9        30.20F
MONTGOMERY     CLOUDY    66  52  60 S5        30.22F
SHELBY CO ARPT PTCLDY    66  57  72 S10       30.20S
MAXWELL AFB    CLOUDY    65  55  69 S5        30.21F
GREENVILLE     FAIR      62  52  69 S5        30.21F
$$

ALZ019-021-028-029-037-038-045>048-250600-
EAST CENTRAL ALABAMA

CITY           SKY/WX    TMP DP  RH WIND       PRES   REMARKS
ANNISTON       CLOUDY    68  51  54 SE10G17   30.21F
ALEXANDER CITY CLOUDY    66  52  61 SE3       30.22F
AUBURN         MOCLDY    64  50  60 SE7       30.24F
$$

ALZ051>064-250600-
SOUTHWEST ALABAMA

CITY           SKY/WX    TMP DP  RH WIND       PRES   REMARKS
MOBILE         CLOUDY    67  61  81 SE15      30.17F
BROOKLEY FIELD MOCLDY    68  63  84 SE14      30.19F
EVERGREEN      PTCLDY    58  54  86 CALM      30.20F
$$

ALZ049-050-065>069-250600-
SOUTHEAST ALABAMA

CITY           SKY/WX    TMP DP  RH WIND       PRES   REMARKS
DOTHAN         CLOUDY    62  57  83 SE3       30.27F
OZARK          CLOUDY    62  56  83 CALM      30.23F
TROY           PTCLDY    60  55  83 CALM      30.24F
EUFAULA        FAIR      68  50  52 SE10      30.22F
$$




USA.gov is the U.S. government's official web portal to all federal, state and local government web resources and services.